This is the latest recevied weather packets stored in our database for station/object KB1ZFK. If no packets are shown the sender has not sent any weather packets the latest 10 day(s).
| Time | Temp. | Humidity | Pressure | Rain* | Wind** | Luminosity | Snow |
|---|---|---|---|---|---|---|---|
| 1777887320 | 6.67° C | 68% | 1009.3 hPa | 0 mm | - | 0 W/m² | - |
| 1777887016 | 6.67° C | 68% | 1009 hPa | 0 mm | - | 0 W/m² | - |
| 1777886712 | 6.67° C | 66% | 1009.1 hPa | 0 mm | - | 0 W/m² | - |
| 1777886409 | 6.11° C | 68% | 1009 hPa | 0 mm | - | 0 W/m² | - |
| 1777886107 | 5.56° C | 71% | 1009 hPa | 0 mm | - | 0 W/m² | - |
| 1777885804 | 6.11° C | 70% | 1009 hPa | 0 mm | - | 0 W/m² | - |
| 1777885503 | 6.11° C | 70% | 1009.1 hPa | 0 mm | - | 0 W/m² | - |
| 1777885201 | 6.11° C | 71% | 1009.2 hPa | 0 mm | - | 0 W/m² | - |
| 1777884897 | 6.11° C | 68% | 1009.4 hPa | 0 mm | - | 0 W/m² | - |
| 1777884594 | 6.11° C | 67% | 1009.4 hPa | 0 mm | - | 0 W/m² | - |
| 1777884291 | 6.11° C | 68% | 1009.2 hPa | 0 mm | - | 0 W/m² | - |
| 1777883987 | 6.11° C | 67% | 1009.5 hPa | 0 mm | - | 0 W/m² | - |
| 1777883684 | 6.11° C | 67% | 1009.5 hPa | 0 mm | - | 0 W/m² | - |
| 1777883380 | 6.11° C | 68% | 1009.6 hPa | 0 mm | - | 0 W/m² | - |
| 1777883077 | 5.56° C | 71% | 1009.3 hPa | 0 mm | - | 0 W/m² | - |
| 1777882773 | 5.56° C | 70% | 1009.3 hPa | 0 mm | - | 0 W/m² | - |
| 1777882470 | 5.56° C | 70% | 1009.2 hPa | 0 mm | - | 0 W/m² | - |
| 1777882166 | 5.56° C | 69% | 1009.2 hPa | 0 mm | - | 0 W/m² | - |
| 1777881863 | 5.56° C | 69% | 1009.3 hPa | 0 mm | - | 0 W/m² | - |
| 1777881559 | 5.56° C | 69% | 1009.1 hPa | 0 mm | - | 0 W/m² | - |
| 1777881257 | 6.11° C | 65% | 1009.2 hPa | 0 mm | - | 0 W/m² | - |
| 1777880954 | 6.11° C | 64% | 1009.2 hPa | 0 mm | - | 0 W/m² | - |
| 1777880652 | 6.11° C | 64% | 1009.3 hPa | 0 mm | - | 0 W/m² | - |
| 1777880350 | 6.11° C | 63% | 1009.3 hPa | 0 mm | - | 0 W/m² | - |
| 1777880048 | 5.56° C | 63% | 1009.4 hPa | 0 mm | - | 0 W/m² | - |
* Rain latest hour (hover to see other rain measurements)
** Current wind speed in m/s (hover to see current wind gust speed)